Location: Newark
(43.6583°N, 1.6617°E)
Time: 03:58:47
(UTC+00:00)

Transit 4A - Pass Details

Date: 25 August 2019
Orbit: 865 x 980 km, 66.8° (Epoch: 15 September)

Event Time Altitude Azimuth Distance (km) Brightness Sun altitude
Rises 23:46:55 0° 333° (NNW) 3,655 11.8 -35.7°
Reaches altitude 10° 23:50:43 10° 355° (N) 2,685 11.1 -35.7°
Maximum altitude 23:54:22 16° 31° (NNE) 2,269 10.4 -35.8°
Drops below altitude 10° 23:57:57 10° 67° (ENE) 2,633 10.5 -35.8°
Enters shadow 00:00:59 - 86° (E) 3,374 10.9 -35.7°
